sat.trackr.live / text

‹ back to catalog

TRANSPORTER-17 OBJECT M

NORAD 69880 · 2026-156M

PAYLOAD ACTIVE UNKNOWN

§ Identity

Operator
Country
TBD
Launch date
2026-07-07
Launch site
AFWTR
Launch vehicle
Mass (kg)
RCS (m²)

External: N2YO · Heavens-Above · Gunter

§ Orbital elements

Epoch: 2026-09-20T03:57:18.599040Z

Period
96.57 min
Inclination
97.7366°
Eccentricity
0.0003444
Mean motion
14.91215874 rev/d
Perigee alt
591.7 km
Apogee alt
596.5 km
Semi-major
6,972.3 km
B*
1.1722e-4
RAAN
162.2105°
Arg perigee
218.3272°
Mean anomaly
141.7702°
Rev number
1,115

§ Raw data

TRANSPORTER-17 OBJECT M1 69880U 26156M   26263.16479860  .00001110  00000+0  11722-3 0  99992 69880  97.7366 162.2105 0003444 218.3272 141.7702 14.91215874 11150

JSON: /api/v1/satellites/69880 · /tle

For live sub-satellite position, see the globe view (requires WebGL).

§ Visibility from observer

Set your observer location to see the next 7 days of passes ≥ 10°. The values pass through the URL so the page stays shareable.

No JS? Fill the form by hand. The geolocation button needs JavaScript.